Retour au catalogue

STARLINK-37339

ActifCommunicationsSSO
NORAD 68735·PAYLOAD·🇺🇸 United States

Lancé Apr 15, 2026 depuis Vandenberg Space Force Base

Loading…

Prochains Passages (prochaines 24 heures)

TLE

FraisSource: CelesTrak SupGP

Époque: Sep 15, 2026, 03:00 UTC

1 68735C 26082H   26258.12548611  .00011251  00000+0  34925-3 0  2581
2 68735  97.2848 120.4066 0001694  87.8453 337.5841 15.33433257    11

Suivez STARLINK-37339 en temps réel avec AllMySat

Download on the App Store